COSMOS 675

导读

COSMOS 675隶属于苏联/俄罗斯“宇宙”号卫星系列,该系列是世界上卫星数量最多的人造卫星系列,涵盖应用卫星、科学卫星与技术试验卫星,多数为军用卫星。 这颗卫星于1974年8月29日发射,归属独立国家联合体(CIS),具体任务未公开,推测可能承担侦察、空间探测或技术试验任务,该系列还曾编入未入轨探测器与试验无人飞船,是苏联航天发展的重要载体。

基本信息
目录编号:
7424
目录名称:
COSMOS 675
国际标识:
1974-069A
轨道中心:
EARTH
卫星名称:
COSMOS 675
卫星全名:
--
卫星状态:
在轨 (已飞行18924 天)
发射日期:
1974-08-29 UTC
国别 :
俄罗斯(独联体) (CIS)
星等 :
--
轨道信息
数据来源 国际轨道数据 AOE轨道数据
星历时间 2026-06-20T17:59:53+0800
19小时前
查看轨道信息
2026-06-16T01:00:00+0800
5天前
查看轨道信息
半长轴 7771.56km 7771.559km
偏心率 0.0038846 0.0038801
轨道倾角 74.057° 74.058°
近地点辐角 301.415° 308.581°
升交点赤经 219.798° 226.246°
平近点角 69.075° 190.769°
近地点 1363.233km 1363.267km
远地点 1423.613km 1423.577km
周期 113.638分钟 113.638分钟
每日圈数 12.671864 12.671866
详细信息
使用方式:
暂无
2D轨道图
3D轨道图
轨道高度分析图
轨道倾角分析图
轨道综合分析图
查看轨道综合分析图